DW6723 Weather Reports


Display with metric or nautical units.
time (UTC)temp
F
wind
direction
speed
MPH
gust
MPH
rain 1hr
in
rain 24hr
in
rain mn
in
humidity
%
barometer
mb
20260906103021 58 342 5.0 7.0 0.00 0.00 0.00 89 1014.1
20260906101520 58 355 5.0 8.0 0.00 0.00 0.00 89 1013.9
20260906100019 58 344 3.0 5.0 0.00 0.00 0.00 89 1013.8
20260906094505 58 355 3.0 5.0 0.00 0.00 0.00 90 1013.7
20260906093011 58 19 3.0 5.0 0.00 0.00 0.00 90 1013.6
20260906091504 58 32 4.0 6.0 0.00 0.00 0.00 89 1013.6
20260906090001 59 46 4.0 5.0 0.00 0.00 0.00 89 1013.5
20260906084610 59 32 5.0 8.0 0.00 0.00 0.00 89 1014.0
20260906083057 60 11 6.0 9.0 0.00 0.00 0.00 88 1013.7
20260906081556 60 341 3.0 7.0 0.00 0.00 0.00 86 1013.4
20260906080054 62 360 3.0 6.0 0.00 0.00 0.00 80 1013.5
20260906074533 62 59 2.0 4.0 0.00 0.00 0.00 79 1013.2
20260906073046 62 107 2.0 5.0 0.00 0.00 0.00 78 1013.2
20260906071529 62 90 1.0 4.0 0.00 0.00 0.00 78 1013.2
20260906070037 62 107 2.0 8.0 0.00 0.00 0.00 77 1013.1
20260906064527 62 80 3.0 8.0 0.00 0.00 0.00 80 1013.0
20260906063027 62 96 6.0 11.0 0.00 0.00 0.00 78 1012.9
20260906061525 62 84 7.0 12.0 0.00 0.00 0.00 81 1013.1
20260906060025 62 105 4.0 6.0 0.00 0.00 0.00 91 1012.8
20260906054504 62 56 1.0 3.0 0.00 0.00 0.00 92 1012.8
20260906053002 63 9 1.0 3.0 0.00 0.00 0.00 92 1013.0
20260906051549 63 332 1.0 3.0 0.00 0.00 0.00 92 1013.0
20260906050149 63 311 2.0 5.0 0.00 0.00 0.00 91 1013.0
20260906044547 63 337 2.0 6.0 0.00 0.00 0.00 91 1012.8
20260906043103 63 319 3.0 5.0 0.00 0.00 0.00 91 1012.8
20260906041546 63 321 3.0 6.0 0.00 0.00 0.00 91 1012.8
20260906040105 63 305 5.0 7.0 0.00 0.00 0.00 91 1012.8
20260906034544 63 306 4.0 6.0 0.00 0.00 0.00 90 1012.8
20260906033049 63 315 3.0 4.0 0.00 0.00 0.00 90 1012.6
20260906031531 63 321 3.0 5.0 0.00 0.00 0.00 90 1012.6
20260906030031 63 337 2.0 4.0 0.00 0.00 0.00 90 1012.6
20260906024535 63 321 2.0 4.0 0.00 0.00 0.00 90 1012.5
20260906023032 63 312 3.0 5.0 0.00 0.00 0.00 90 1012.6
20260906021530 63 332 3.0 4.0 0.00 0.00 0.00 90 1012.5
20260906020030 63 304 0.0 0.0 0.00 0.00 0.00 90 1012.6
20260906014541 63 313 0.0 3.0 0.00 0.00 0.00 89 1012.6
20260906013031 63 321 1.0 2.0 0.00 0.00 0.00 89 1012.6
20260906011509 63 319 0.0 2.0 0.00 0.00 0.00 88 1012.5
20260906010008 63 319 0.0 2.0 0.00 0.00 0.00 88 1012.4
20260906004549 63 319 0.0 2.0 0.00 0.00 0.00 88 1012.4
20260906003051 63 319 1.0 2.0 0.00 0.00 0.00 88 1012.2
20260906001543 63 331 1.0 2.0 0.00 0.00 0.00 87 1012.1
20260906000043 64 333 1.0 2.0 0.00 0.00 0.00 86 1012.0
20260905234552 64 38 0.0 1.0 0.00 0.00 0.00 87 1012.0
20260905233042 64 38 1.0 2.0 0.00 0.00 0.00 87 1011.9
20260905231543 64 38 1.0 2.0 0.00 0.00 0.00 85 1012.0
20260905230043 64 38 0.0 2.0 0.00 0.00 0.00 84 1011.8
20260905224546 64 38 0.0 2.0 0.00 0.00 0.00 84 1011.8
20260905223039 65 47 0.0 2.0 0.00 0.00 0.00 80 1011.8
20260905221541 64 134 0.0 2.0 0.00 0.00 0.00 81 1011.7
20260905220037 64 114 1.0 4.0 0.00 0.00 0.00 81 1011.5
20260905214534 64 128 2.0 4.0 0.00 0.00 0.00 82 1011.2
20260905213036 64 141 2.0 4.0 0.00 0.00 0.00 83 1011.1
20260905211507 64 146 3.0 6.0 0.00 0.00 0.00 84 1011.1
20260905210006 63 119 3.0 6.0 0.00 0.00 0.00 86 1011.2
20260905204552 63 126 3.0 7.0 0.00 0.00 0.00 88 1011.1
20260905203051 63 137 4.0 9.0 0.00 0.00 0.00 89 1011.0
20260905201550 63 134 4.0 9.0 0.00 0.00 0.00 90 1011.0
20260905200054 63 145 3.0 7.0 0.00 0.00 0.00 91 1010.9
20260905194552 63 148 3.0 11.0 0.00 0.00 0.00 90 1010.8
20260905193045 64 98 9.0 14.0 0.00 0.00 0.00 88 1011.0
20260905191546 65 106 14.0 18.0 0.00 0.00 0.00 82 1010.8
20260905190050 66 119 8.0 14.0 0.00 0.00 0.00 82 1010.7
20260905184532 66 126 5.0 10.0 0.00 0.00 0.00 82 1010.6
20260905183028 67 120 8.0 14.0 0.00 0.00 0.00 79 1010.5
20260905181530 67 80 8.0 11.0 0.00 0.00 0.00 77 1010.5
20260905180027 66 69 9.0 12.0 0.00 0.00 0.00 77 1010.5
20260905174527 66 96 6.0 12.0 0.00 0.00 0.00 81 1010.4
20260905173028 65 90 8.0 14.0 0.00 0.00 0.00 81 1010.4
20260905171526 65 85 8.0 16.0 0.00 0.00 0.00 81 1010.5
20260905170025 64 67 10.0 14.0 0.00 0.00 0.00 82 1010.5
20260905164517 64 87 13.0 17.0 0.00 0.00 0.00 84 1010.5
20260905163013 64 44 11.0 25.0 0.00 0.00 0.00 86 1010.4
20260905161511 66 86 16.0 23.0 0.00 0.00 0.00 81 1010.3
20260905160011 67 91 13.0 21.0 0.00 0.00 0.00 79 1010.2
20260905154508 67 85 11.0 16.0 0.00 0.00 0.00 79 1010.3
20260905153006 67 89 10.0 14.0 0.00 0.00 0.00 79 1010.1
20260905151506 67 74 9.0 13.0 0.00 0.00 0.00 79 1010.0
20260905150004 67 74 6.0 11.0 0.00 0.00 0.00 79 1010.3
20260905144552 67 58 10.0 12.0 0.00 0.00 0.00 77 1010.1
20260905143049 68 71 7.0 10.0 0.00 0.00 0.00 76 1010.1
20260905141555 67 79 8.0 14.0 0.00 0.00 0.00 75 1010.0
20260905140047 68 67 11.0 15.0 0.00 0.00 0.00 76 1009.9
20260905134546 67 34 6.0 10.0 0.00 0.00 0.00 78 1009.8
20260905133044 67 49 5.0 9.0 0.00 0.00 0.00 79 1009.6
20260905131558 66 44 5.0 10.0 0.00 0.00 0.00 81 1009.4
20260905130049 66 38 6.0 9.0 0.00 0.00 0.00 81 1009.3
20260905124526 65 43 3.0 7.0 0.00 0.00 0.00 83 1009.3
20260905123021 65 348 2.0 5.0 0.00 0.00 0.00 85 1009.2
20260905121510 64 350 2.0 4.0 0.00 0.00 0.00 86 1009.2
20260905120009 64 19 1.0 3.0 0.00 0.00 0.00 86 1009.1
20260905114508 64 32 2.0 6.0 0.00 0.00 0.00 86 1009.0
20260905113012 64 55 4.0 7.0 0.00 0.00 0.00 85 1008.9
20260905111505 64 338 3.0 5.0 0.00 0.00 0.00 85 1008.6
20260905110005 64 321 4.0 8.0 0.00 0.00 0.00 85 1008.5
20260905104503 64 360 4.0 7.0 0.00 0.00 0.00 85 1008.3